Powrót do katalogu

THOR ALTAIR DEB

AktywnyPO
NORAD 1931·DEBRIS·🇺🇸 United States

Wystrzelony Sep 10, 1965 z Vandenberg Space Force Base

Loading…

Następne Przeloty (najbliższe 24 godziny)

TLE

ŚwieżeSource: Space-Track

Epoka: Sep 14, 2026, 01:06 UTC

1 01931U 65072E   26257.04623117  .00000559  00000-0  15721-3 0  9998
2 01931  98.9989 297.5833 0235692 176.3244 183.9742 14.35274954205598

Śledź THOR ALTAIR DEB w czasie rzeczywistym z AllMySat

Download on the App Store